SCOUT X-4 R/B, 809

Orbit data source: Space-Track

SCOUT X-4 R/B, 809 is space debris in LEO originally from a launch on Thu, 04 Jun 1964 UTC launched from the Air Force Western Test Range (AFWTR). Debris objects in space refer to the collection of defunct objects orbiting the Earth. Examples of debris include non-operational satellites, rocket bodies, and fragments generated from explosions, collisions, or faulty payload assembly.

Loading next visibility...
Identifier
809, 1964-026D
Orbit
LEO
Last TLE update
8 hours ago
Origin
Manufacturer
ABL
Mission
Spacecraft
Bus & Motor
ALTAIR, Unknown motor
Mass
33 kg wet, 33 kg dry
Launch date (UTC)
1964-06-04 (61 years ago)
Launch vehicle
Unknown
Launch site
Air Force Western Test Range (AFWTR)
Object type
Payload
Rocket body
Debris
Shape & HBR
Cyl, 1.5 m
Radar Cross Section
0.687 m², Medium (>0.1 m² and < 1m²)

Expand to show TLE details & history

TLE from 8 hours ago
0 SCOUT X-4 R/B
1 00809U 64026D   25182.86338136  .00000221  00000-0  11760-3 0  9994
2 00809  90.4501 160.2547 0042226 103.3525 257.2373 14.10566410128758
Epoch: 2025-07-01T20:43Z
TLE epoch observation values (Epoch: 2025-07-01T20:43:16.149Z)
Latitude
-0.00003°
Longitude
-70.71532°
Altitude
867.349 km
Speed
7.415 km/s
True Right ascension
10h 41m 01s
True Declination
0° 00' 00"
Sunlit
Object was in daylight at epoch
Visualization orbit readout
Latitude
-70.85661°
Longitude
-69.40821°
Altitude
914.23 km
Speed
7.378 km/s
Apparent Right ascension
06h 21m 39s
Apparent Declination
-63° 56' 04"
Sunlit
Object is in daylight
Visualization observer readout
Local Sidereal Time
16:35:17
Azimuth
204.24° SW
Elevation
-61.374°
Doppler factor
1
Orbital elements
Apogee altitude
884.937 km
Perigee altitude
823.856 km
Semi-major axis
7,232.534 km
Eccentricity
0.00422
Inclination
90.4501°
RAAN
160.2547°
Arg. of periapsis
103.3525°
True anomaly
Unknown
Mean anomaly
257.2373°
Eccentric anomaly
Unknown
Mean motion
3.52864 °/min
Orbital period
102.02 mins
BSTAR
0.0001176
Loading maneuver chart data...
Loading SW <> Apogee altitude chart data...
Loading historical data...
Loading historical data...
Loading historical data...
Loading historical data...
Loading historical data...
Loading historical data...
Loading historical data...

SCOUT X-4 R/B Visibility forecast

Observer location: undefined°, undefined°

Span
Click to sort rows by Start time (UTC) header in descending order
Start Az.
Max El. time (UTC)
Max El. Az.
Max El.
End time (UTC)
End Az.
10 mins2025-07-02 10:54:48.506Z2.825° NNE2025-07-02 10:59:48.506Z7.066° NNE44.887°2025-07-02 11:04:48.506Z184.228° SSW
10 mins2025-07-02 22:21:48.506Z155.068° SSE2025-07-02 22:26:48.506Z87.882° E37.296°2025-07-02 22:31:48.506Z9.626° NNE
6 mins2025-07-03 00:06:48.506Z247.612° W2025-07-03 00:08:48.506Z273.704° WNW18.395°2025-07-03 00:12:48.506Z322.189° NNW
|